N5GAH-13 Weather Reports


time (UTC)temp
C
wind
direction
speed
KPH
gust
KPH
rain 1hr
cm
rain 24hr
cm
rain mn
cm
humidity
%
barometer
mb
20260906220034 37 145 11.3 25.7 0.00 0.00 0.00 31 1019.4
20260906213034 36 133 9.7 24.1 0.00 0.00 0.00 32 1019.9
20260906210034 37 145 8.0 20.9 0.00 0.00 0.00 32 1020.4
20260906203034 36 130 11.3 25.7 0.00 0.00 0.00 34 1020.9
20260906200034 36 96 11.3 27.4 0.00 0.00 0.00 34 1021.2
20260906193034 36 124 11.3 27.4 0.00 0.00 0.00 34 1021.4
20260906190034 36 128 12.9 25.7 0.00 0.00 0.00 36 1021.8
20260906183034 35 123 9.7 24.1 0.00 0.00 0.00 37 1021.9
20260906180034 35 107 11.3 25.7 0.00 0.00 0.00 38 1022.4
20260906163034 33 151 6.4 16.1 0.00 0.00 0.00 44 1022.8
20260906160034 32 155 6.4 14.5 0.00 0.00 0.00 49 1022.9
20260906153034 31 176 6.4 14.5 0.00 0.00 0.00 54 1022.7
20260906150034 28 156 4.8 12.9 0.00 0.00 0.00 60 1022.4
20260906143034 26 167 4.8 12.9 0.00 0.00 0.00 67 1022.4
20260906140035 23 142 4.8 11.3 0.00 0.00 0.00 73 1022.1
20260906133036 22 114 6.4 12.9 0.00 0.00 0.00 78 1021.9
20260906130034 21 139 3.2 6.4 0.00 0.00 0.00 79 1021.4
20260906123034 21 135 3.2 8.0 0.00 0.00 0.00 78 1021.2
20260906120034 21 136 3.2 8.0 0.00 0.00 0.00 76 1021.1
20260906113034 22 132 3.2 4.8 0.00 0.00 0.00 73 1021.1
20260906110034 22 139 1.6 4.8 0.00 0.00 0.00 71 1021.1
20260906103034 23 160 0.0 3.2 0.00 0.00 0.00 70 1020.7
20260906100034 23 170 1.6 6.4 0.00 0.00 0.00 70 1020.4
20260906093034 23 195 3.2 6.4 0.00 0.00 0.00 69 1020.5
20260906083034 25 198 4.8 8.0 0.00 0.00 0.00 66 1020.6
20260906070034 26 178 6.4 14.5 0.00 0.00 0.00 59 1020.8
20260906063034 26 163 4.8 12.9 0.00 0.00 0.00 57 1020.8
20260906053034 27 145 6.4 11.3 0.00 0.00 0.00 52 1021.2
20260906050034 27 137 8.0 14.5 0.00 0.00 0.00 50 1021.2
20260906043034 28 146 6.4 16.1 0.00 0.00 0.00 48 1021.0
20260906040034 28 142 9.7 19.3 0.00 0.00 0.00 47 1020.9
20260906033034 29 129 11.3 19.3 0.00 0.00 0.00 46 1020.6
20260906030034 30 127 9.7 19.3 0.00 0.00 0.00 44 1020.2
20260906023034 30 128 8.0 14.5 0.00 0.00 0.00 42 1019.8
20260906020034 31 121 8.0 16.1 0.00 0.00 0.00 41 1019.1
20260906013034 32 121 9.7 16.1 0.00 0.00 0.00 39 1018.7
20260906010034 33 115 11.3 20.9 0.00 0.00 0.00 37 1018.4
20260906003034 35 110 9.7 19.3 0.00 0.00 0.00 35 1018.4
20260906000034 35 98 9.7 20.9 0.00 0.00 0.00 34 1018.2
20260905233034 36 124 9.7 19.3 0.00 0.00 0.00 33 1017.9
20260905223034 38 115 9.7 19.3 0.00 0.00 0.00 30 1018.0